GFSFLT1_700_temp_000.txt.gz
Temp
6 6 5 5 4 3 3 3 3 2 2 2 2 2 1 1 -0 -0 -0 -0 -1 -1 -1 -2 -2 -2 -2 -2 -2 -2 -2 -2
6 6 6 5 4 4 3 3 2 2 2 1 1 1 1 1 -1 -1 -2 -1 -1 -2 -2 -3 -3 -3 -3 -3 -3 -3 -4 -4
6 5 5 5 4 4 4 3 3 2 1 1 1 1 1 0 -0 -1 -2 -2 -3 -3 -3 -4 -4 -4 -4 -4 -5 -5 -5 -5
5 4 4 4 4 3 4 3 2 2 1 1 1 0 0 -0 -1 -1 -2 -3 -3 -4 -4 -5 -6 -6 -6 -6 -5 -5 -6 -6
4 4 4 3 3 3 3 2 2 1 0 -1 -1 -1 -1 -1 -2 -2 -3 -3 -3 -3 -4 -5 -5 -6 -7 -7 -7 -7 -7 -6
3 3 2 2 2 1 1 1 0 -0 -1 -1 -1 -1 -1 -2 -2 -3 -3 -3 -3 -3 -4 -4 -5 -6 -7 -7 -7 -7 -7 -7
3 2 1 1 1 1 1 -0 -0 -1 -2 -2 -1 -2 -1 -2 -2 -3 -4 -4 -4 -5 -5 -5 -6 -6 -7 -6 -7 -7 -8 -7
2 1 1 1 0 1 -0 -1 -2 -2 -2 -2 -1 -1 -1 -2 -3 -3 -4 -4 -4 -4 -5 -6 -6 -7 -7 -7 -7 -7 -8 -7
2 2 1 1 0 -1 -2 -2 -2 -2 -2 -2 -2 -2 -2 -3 -3 -3 -3 -4 -5 -5 -6 -6 -7 -7 -7 -7 -7 -8 -8 -9
2 2 1 -0 -1 -2 -2 -2 -1 -1 -2 -2 -2 -2 -3 -3 -3 -4 -4 -5 -6 -5 -6 -6 -6 -7 -8 -9 -9 -9 -10 -10
2 1 0 -1 -1 -1 -1 -2 -2 -2 -2 -2 -2 -3 -3 -4 -5 -6 -7 -7 -7 -6 -6 -7 -8 -9 -9 -9 -10 -10 -10 -10
0 -1 -1 -2 -2 -2 -2 -2 -3 -3 -2 -3 -3 -3 -4 -5 -6 -7 -8 -8 -8 -8 -8 -9 -9 -10 -10 -11 -11 -11 -11 -11
0 -0 -1 -1 -1 -2 -2 -2 -3 -3 -3 -3 -4 -4 -5 -7 -7 -8 -8 -9 -9 -9 -10 -10 -10 -11 -11 -11 -11 -12 -12 -12
-0 -0 -1 -1 -2 -2 -2 -3 -3 -3 -4 -4 -4 -5 -6 -8 -8 -9 -9 -10 -10 -11 -11 -11 -11 -11 -12 -12 -12 -13 -13 -13
-1 -1 -2 -3 -3 -3 -4 -4 -4 -4 -4 -5 -5 -7 -9 -8 -9 -9 -10 -10 -10 -11 -12 -12 -12 -12 -12 -13 -13 -13 -13 -14
-2 -2 -3 -3 -3 -4 -4 -4 -5 -5 -6 -6 -7 -9 -9 -9 -10 -10 -11 -11 -11 -12 -13 -13 -13 -13 -13 -14 -14 -14 -14 -14
-3 -3 -3 -4 -4 -5 -5 -5 -6 -6 -6 -7 -9 -10 -9 -10 -11 -11 -11 -11 -13 -13 -13 -13 -13 -14 -14 -14 -14 -14 -14 -14
-4 -5 -5 -5 -5 -5 -6 -6 -6 -7 -8 -10 -10 -10 -10 -10 -10 -11 -12 -13 -13 -13 -14 -14 -14 -14 -14 -14 -14 -14 -14 -14
-6 -6 -6 -6 -7 -7 -7 -7 -8 -9 -10 -10 -11 -11 -11 -11 -11 -12 -13 -14 -14 -14 -14 -14 -14 -14 -14 -14 -14 -14 -14 -14

GFSFLT1_700_temp_003.txt.gz
Temp
6 5 5 5 4 3 3 3 3 3 2 2 2 1 1 1 0 0 -0 -0 -1 -1 -1 -2 -2 -2 -2 -2 -2 -3 -3 -3
5 5 5 5 4 3 3 2 2 2 2 2 1 1 1 0 -0 -1 -1 -1 -2 -2 -2 -2 -2 -2 -3 -3 -3 -3 -3 -3
5 5 5 4 3 3 3 3 2 1 2 1 1 1 0 0 -0 -1 -2 -2 -2 -2 -2 -2 -3 -3 -3 -3 -3 -3 -3 -4
4 4 4 3 2 2 2 2 1 1 0 -0 -0 -1 -1 -1 -1 -1 -1 -2 -2 -3 -3 -3 -4 -4 -4 -5 -4 -4 -4 -4
4 3 2 2 2 2 1 1 1 1 0 0 -0 -1 -1 -2 -2 -2 -1 -2 -3 -4 -4 -4 -4 -5 -6 -6 -6 -6 -6 -6
3 3 3 2 2 1 1 1 0 -1 -1 -1 -1 -2 -2 -1 -1 -1 -1 -2 -2 -3 -4 -4 -5 -6 -6 -7 -7 -7 -7 -7
3 3 2 2 1 1 0 0 -0 -0 -1 -2 -1 -2 -2 -1 -1 -2 -2 -2 -3 -3 -4 -4 -5 -6 -5 -7 -7 -7 -7 -7
2 2 2 1 0 -0 -1 -1 -1 -1 -2 -2 -2 -2 -2 -2 -2 -2 -2 -3 -3 -3 -4 -5 -6 -5 -5 -6 -7 -7 -8 -7
1 1 1 -0 -1 -1 -1 -1 -2 -2 -2 -2 -2 -2 -2 -3 -3 -3 -3 -4 -4 -5 -5 -6 -6 -6 -6 -6 -6 -7 -7 -7
0 0 -0 -1 -1 -1 -1 -1 -1 -2 -2 -2 -2 -3 -3 -3 -3 -3 -4 -5 -6 -6 -7 -7 -7 -7 -7 -7 -7 -8 -8 -9
-0 -0 -1 -1 -1 -2 -2 -1 -2 -2 -2 -3 -3 -3 -3 -3 -4 -5 -6 -7 -8 -8 -9 -9 -8 -8 -8 -8 -9 -9 -9 -9
0 -0 -1 -2 -2 -2 -2 -2 -2 -3 -3 -3 -3 -3 -3 -3 -4 -6 -8 -9 -9 -9 -10 -10 -8 -9 -9 -9 -9 -9 -10 -10
-1 -1 -2 -2 -3 -3 -2 -3 -3 -4 -3 -3 -4 -4 -4 -5 -5 -7 -10 -10 -10 -10 -10 -11 -10 -11 -11 -10 -10 -10 -11 -11
-2 -3 -3 -3 -4 -4 -3 -3 -4 -4 -4 -4 -5 -5 -5 -6 -8 -10 -10 -10 -10 -10 -11 -11 -11 -12 -12 -12 -11 -11 -12 -12
-3 -3 -3 -4 -4 -4 -4 -4 -4 -5 -5 -5 -6 -6 -6 -8 -10 -10 -10 -10 -11 -11 -12 -12 -12 -12 -12 -12 -12 -12 -13 -13
-2 -3 -4 -4 -5 -5 -5 -5 -5 -5 -6 -6 -7 -8 -10 -11 -10 -10 -11 -11 -12 -12 -12 -12 -13 -13 -13 -13 -13 -14 -14 -14
-3 -4 -5 -5 -5 -5 -6 -6 -6 -6 -7 -8 -9 -10 -11 -11 -12 -12 -12 -12 -13 -13 -13 -13 -13 -13 -13 -13 -14 -14 -14 -14
-4 -5 -6 -8 -7 -7 -6 -7 -7 -7 -8 -9 -10 -11 -11 -11 -12 -12 -12 -13 -14 -14 -14 -14 -14 -14 -14 -14 -14 -14 -14 -14
-6 -6 -7 -8 -8 -7 -7 -7 -8 -10 -10 -11 -11 -12 -12 -12 -13 -13 -13 -14 -14 -14 -14 -14 -14 -14 -14 -14 -15 -15 -14 -14

GFSFLT1_700_temp_006.txt.gz
Temp
5 5 5 5 4 4 3 3 2 2 2 1 2 1 1 1 0 0 0 -1 -1 -1 -1 -1 -2 -2 -2 -2 -2 -2 -2 -2
5 5 5 4 4 3 3 2 2 2 2 1 1 0 1 0 -1 -0 -1 -1 -1 -1 -1 -1 -2 -2 -3 -3 -3 -3 -3 -3
5 5 5 4 3 3 3 2 2 1 1 1 0 -0 -0 -1 -1 -1 -1 -1 -1 -2 -1 -1 -2 -2 -3 -3 -3 -3 -3 -3
4 4 4 3 3 2 2 1 1 0 -0 -1 -1 -1 -1 -1 -2 -2 -2 -2 -2 -2 -2 -2 -2 -3 -3 -4 -4 -5 -5 -4
4 3 3 2 2 1 1 1 0 -0 -0 -1 -1 -1 -2 -2 -2 -2 -2 -2 -1 -2 -2 -2 -3 -3 -4 -5 -5 -6 -6 -6
3 2 2 2 1 1 0 0 -0 -0 -1 -1 -2 -2 -2 -2 -2 -2 -2 -2 -2 -2 -2 -2 -3 -3 -4 -4 -6 -6 -6 -7
2 2 2 1 1 1 0 -0 -1 -1 -1 -2 -2 -2 -2 -2 -2 -2 -2 -2 -2 -2 -2 -2 -3 -3 -4 -5 -5 -6 -6 -6
2 2 1 1 0 -0 -1 -1 -1 -2 -2 -2 -2 -2 -2 -2 -2 -2 -2 -2 -2 -2 -2 -3 -3 -4 -5 -5 -6 -6 -6 -6
1 1 0 -0 -1 -1 -2 -2 -3 -3 -2 -2 -2 -2 -3 -3 -3 -3 -3 -3 -3 -3 -4 -5 -5 -6 -7 -7 -7 -6 -6 -7
0 -0 -1 -2 -3 -3 -3 -3 -2 -2 -3 -3 -3 -3 -3 -3 -3 -3 -3 -3 -4 -6 -7 -8 -8 -9 -9 -8 -7 -7 -7 -8
-1 -2 -2 -2 -2 -2 -3 -3 -3 -3 -3 -3 -4 -4 -3 -3 -3 -3 -3 -4 -6 -8 -9 -9 -9 -10 -10 -9 -9 -9 -9 -9
-1 -2 -2 -2 -2 -3 -3 -2 -3 -4 -4 -4 -4 -4 -3 -4 -3 -3 -4 -7 -9 -10 -10 -10 -10 -10 -10 -10 -10 -11 -11 -11
-2 -2 -2 -3 -2 -2 -4 -4 -5 -5 -5 -5 -4 -4 -5 -4 -4 -5 -6 -8 -10 -10 -10 -10 -11 -11 -11 -11 -11 -12 -12 -12
-2 -2 -3 -3 -4 -5 -5 -6 -6 -6 -6 -5 -5 -6 -6 -6 -6 -7 -9 -10 -10 -11 -11 -12 -12 -12 -12 -12 -12 -13 -13 -13
-2 -3 -3 -4 -5 -6 -6 -7 -7 -7 -6 -6 -6 -6 -7 -8 -9 -9 -11 -11 -12 -12 -13 -12 -12 -13 -13 -14 -13 -13 -13 -13
-4 -4 -4 -5 -6 -6 -6 -8 -7 -6 -6 -6 -7 -7 -9 -10 -11 -11 -12 -12 -13 -13 -13 -12 -13 -14 -14 -14 -14 -14 -14 -14
-4 -5 -5 -6 -6 -7 -8 -7 -6 -7 -8 -8 -9 -10 -10 -12 -12 -12 -12 -13 -13 -13 -14 -14 -14 -15 -15 -14 -14 -14 -14 -14
-5 -5 -6 -7 -7 -7 -7 -7 -8 -8 -9 -10 -11 -12 -12 -13 -13 -13 -13 -13 -14 -14 -15 -15 -15 -15 -15 -15 -15 -15 -15 -15
-6 -6 -8 -9 -7 -7 -8 -8 -8 -9 -10 -11 -12 -13 -13 -13 -14 -14 -15 -15 -15 -15 -15 -15 -15 -16 -16 -16 -16 -16 -16 -15

GFSFLT1_700_temp_009.txt.gz
Temp
6 5 5 5 5 4 4 3 2 2 2 2 1 1 0 0 -0 -0 -1 -1 -1 -1 -1 -1 -1 -1 -1 -2 -2 -2 -2 -2
5 5 5 4 4 3 3 2 2 2 2 1 0 -0 -0 -1 -1 -1 -1 -2 -2 -2 -1 -1 -1 -1 -1 -1 -2 -2 -2 -3
4 4 4 4 3 2 2 2 2 1 0 -0 -0 -1 -1 -1 -2 -2 -2 -2 -2 -2 -1 -1 -1 -1 -2 -2 -2 -2 -3 -3
4 4 4 3 3 2 1 1 0 0 -0 -1 -1 -1 -2 -2 -2 -2 -2 -2 -2 -1 -1 -2 -2 -2 -2 -2 -3 -3 -3 -4
3 3 3 2 1 1 0 0 0 -0 -1 -1 -1 -1 -2 -2 -2 -2 -2 -1 -2 -2 -2 -2 -2 -2 -2 -2 -3 -3 -4 -4
3 2 2 2 1 0 0 -0 -0 -0 -1 -1 -1 -2 -2 -2 -2 -2 -2 -2 -2 -2 -2 -2 -2 -2 -2 -2 -3 -3 -4 -5
2 2 1 1 1 0 -0 -0 -1 -1 -1 -1 -2 -2 -2 -2 -3 -3 -3 -2 -2 -2 -2 -2 -2 -2 -2 -2 -2 -3 -4 -5
2 1 1 0 0 -0 -1 -1 -1 -1 -2 -2 -3 -3 -3 -4 -4 -3 -3 -3 -3 -3 -3 -3 -2 -2 -2 -4 -5 -6 -6 -7
1 1 0 -0 -1 -1 -1 -2 -2 -2 -2 -3 -4 -5 -5 -4 -4 -4 -4 -4 -3 -3 -3 -3 -4 -5 -7 -7 -8 -8 -8 -8
-0 -0 -1 -1 -2 -2 -3 -3 -3 -3 -4 -4 -5 -5 -5 -4 -5 -4 -4 -4 -4 -4 -4 -6 -8 -9 -9 -9 -9 -9 -9 -9
-1 -2 -2 -2 -3 -3 -3 -3 -4 -4 -5 -5 -6 -6 -5 -5 -4 -4 -4 -5 -5 -6 -8 -9 -10 -10 -10 -10 -10 -10 -10 -10
-2 -2 -2 -2 -3 -3 -3 -4 -4 -5 -5 -6 -6 -6 -5 -5 -4 -4 -6 -7 -8 -9 -10 -10 -11 -11 -10 -11 -11 -11 -11 -11
-2 -2 -2 -3 -3 -4 -4 -4 -5 -6 -6 -6 -7 -6 -5 -6 -6 -6 -8 -9 -10 -11 -11 -12 -11 -11 -12 -12 -12 -12 -12 -12
-3 -3 -3 -4 -4 -4 -4 -6 -6 -7 -8 -7 -6 -6 -6 -7 -8 -9 -10 -11 -11 -12 -12 -12 -13 -13 -13 -12 -13 -13 -13 -14
-3 -4 -4 -4 -5 -6 -6 -7 -7 -7 -6 -6 -6 -7 -8 -9 -10 -11 -12 -12 -12 -12 -12 -13 -13 -13 -13 -13 -13 -14 -14 -14
-3 -4 -4 -6 -6 -7 -7 -7 -7 -7 -7 -7 -8 -9 -10 -11 -12 -12 -13 -13 -13 -13 -13 -13 -13 -13 -14 -14 -14 -14 -15 -15
-4 -4 -5 -6 -7 -8 -7 -7 -7 -8 -8 -9 -10 -11 -11 -12 -13 -13 -13 -14 -14 -14 -14 -14 -14 -14 -15 -15 -15 -15 -15 -15
-5 -6 -6 -8 -7 -7 -7 -8 -8 -9 -9 -10 -11 -12 -13 -13 -13 -14 -15 -14 -14 -14 -15 -15 -15 -16 -16 -16 -16 -16 -16 -16
-6 -7 -8 -7 -6 -7 -8 -9 -9 -10 -10 -12 -13 -13 -14 -14 -15 -15 -15 -15 -15 -15 -15 -15 -16 -16 -16 -16 -16 -16 -16 -16

GFSFLT1_700_temp_012.txt.gz
Temp
6 5 5 4 4 4 3 3 3 2 2 2 1 1 0 -0 -1 -1 -1 -1 -1 -2 -1 -1 -0 -0 -1 -1 -1 -1 -1 -1
5 4 4 4 4 4 3 3 3 2 1 1 1 0 -0 -1 -1 -1 -1 -1 -2 -2 -2 -1 -1 -1 -1 -1 -2 -1 -2 -2
4 4 4 4 4 3 3 2 2 2 1 1 0 -0 -1 -1 -1 -1 -2 -2 -2 -2 -2 -2 -2 -2 -2 -1 -1 -1 -1 -2
4 4 3 3 3 2 2 2 1 1 0 0 -0 -1 -1 -1 -2 -2 -2 -2 -2 -2 -2 -2 -2 -2 -2 -2 -2 -2 -2 -2
3 3 3 2 2 2 1 1 0 0 -0 -1 -1 -1 -1 -1 -1 -2 -2 -2 -2 -2 -3 -2 -2 -2 -2 -2 -2 -2 -2 -2
3 2 2 2 1 1 0 0 -0 -0 -1 -1 -1 -1 -2 -2 -2 -2 -2 -2 -3 -3 -3 -3 -3 -3 -2 -2 -2 -2 -2 -2
2 2 1 1 1 0 -0 -1 -1 -1 -2 -2 -2 -2 -2 -2 -2 -2 -3 -4 -4 -4 -4 -3 -3 -3 -3 -3 -3 -3 -3 -4
2 1 1 1 0 -0 -1 -1 -2 -2 -2 -2 -2 -2 -3 -3 -4 -4 -4 -4 -4 -4 -4 -3 -3 -4 -4 -4 -4 -5 -6 -6
1 0 0 0 -0 -1 -1 -1 -2 -2 -2 -2 -3 -4 -4 -4 -5 -5 -5 -5 -5 -4 -4 -5 -5 -5 -6 -7 -8 -8 -9 -9
-0 -1 -1 -1 -1 -2 -2 -2 -2 -2 -3 -3 -3 -3 -4 -5 -5 -6 -6 -5 -5 -5 -5 -6 -7 -8 -9 -9 -10 -10 -10 -10
-1 -2 -2 -2 -2 -2 -3 -3 -3 -4 -3 -3 -4 -5 -6 -6 -6 -6 -6 -6 -6 -6 -8 -9 -10 -10 -11 -11 -11 -11 -11 -11
-2 -2 -3 -2 -2 -3 -3 -3 -4 -4 -5 -6 -6 -6 -6 -6 -6 -6 -7 -8 -9 -10 -10 -11 -11 -11 -11 -11 -12 -12 -12 -12
-2 -3 -3 -3 -3 -3 -3 -4 -5 -6 -7 -7 -6 -6 -6 -6 -7 -8 -10 -10 -11 -12 -12 -12 -12 -12 -12 -12 -13 -13 -13 -13
-2 -3 -3 -4 -4 -5 -5 -6 -7 -7 -7 -7 -6 -6 -7 -8 -9 -10 -11 -12 -13 -13 -13 -13 -13 -13 -13 -13 -13 -13 -14 -14
-4 -4 -4 -5 -5 -5 -6 -7 -6 -6 -7 -7 -7 -8 -9 -10 -11 -12 -12 -13 -14 -14 -13 -13 -14 -14 -14 -14 -14 -14 -14 -14
-4 -4 -6 -6 -6 -6 -6 -6 -7 -7 -7 -8 -9 -9 -10 -11 -12 -13 -13 -14 -14 -14 -14 -14 -14 -14 -14 -15 -15 -15 -15 -15
-4 -6 -6 -7 -7 -7 -7 -7 -7 -8 -8 -9 -10 -10 -12 -13 -13 -14 -14 -15 -15 -15 -15 -15 -15 -15 -15 -15 -16 -16 -16 -16
-6 -6 -6 -6 -7 -7 -7 -8 -8 -9 -9 -10 -11 -12 -13 -14 -14 -15 -15 -15 -15 -15 -15 -15 -15 -16 -16 -16 -16 -16 -16 -16
-6 -6 -7 -7 -8 -8 -8 -9 -9 -10 -10 -11 -12 -13 -14 -14 -15 -15 -15 -15 -15 -15 -15 -15 -16 -16 -16 -16 -16 -16 -16 -16

GFSFLT1_700_temp_015.txt.gz
Temp
4 5 5 5 5 4 4 4 3 4 2 2 2 1 1 1 0 -0 -0 -1 -0 -1 -1 -1 -1 -1 -1 -1 -1 -1 -1 -1
5 6 5 5 4 4 4 4 3 3 2 2 1 1 1 0 -0 -0 -1 -1 -1 -1 -1 -2 -2 -2 -1 -2 -2 -1 -1 -1
6 5 4 4 4 3 3 3 2 2 2 1 1 1 0 -0 -0 -1 -1 -1 -2 -2 -2 -2 -2 -2 -2 -2 -2 -2 -2 -2
4 4 4 3 3 3 3 2 2 2 1 1 1 0 -0 -1 -1 -1 -2 -2 -2 -2 -2 -2 -2 -2 -3 -3 -3 -3 -2 -2
4 3 3 3 2 2 2 2 1 1 1 0 -0 -1 -1 -2 -2 -2 -2 -2 -2 -2 -2 -2 -3 -3 -3 -3 -3 -3 -3 -2
3 3 3 2 2 2 1 1 1 0 -0 -1 -1 -2 -2 -2 -2 -1 -2 -2 -2 -3 -3 -4 -4 -4 -4 -4 -3 -3 -3 -4
3 2 2 2 2 1 1 0 -0 -1 -1 -1 -1 -1 -1 -1 -1 -2 -2 -3 -3 -4 -5 -5 -5 -5 -4 -4 -4 -4 -4 -4
2 1 -0 0 0 0 -0 -1 -1 -2 -1 -1 -1 -2 -2 -2 -3 -3 -3 -4 -4 -5 -5 -5 -5 -5 -5 -5 -5 -5 -5 -7
1 1 0 -1 -0 -1 -1 -1 -1 -1 -2 -2 -2 -3 -3 -3 -3 -4 -4 -4 -5 -5 -5 -5 -5 -6 -7 -8 -9 -10 -10 -10
-1 -2 -2 -1 -1 -1 -1 -2 -2 -2 -2 -2 -2 -3 -4 -4 -5 -5 -5 -5 -6 -6 -6 -7 -8 -8 -9 -10 -11 -11 -11 -11
-1 -2 -3 -3 -2 -2 -2 -2 -3 -3 -4 -4 -5 -5 -5 -6 -6 -6 -6 -6 -7 -8 -9 -10 -10 -10 -11 -12 -12 -12 -12 -12
-2 -2 -3 -4 -4 -4 -4 -4 -4 -4 -4 -5 -6 -6 -6 -6 -6 -7 -8 -9 -9 -11 -11 -12 -12 -12 -12 -12 -12 -12 -13 -13
-3 -3 -3 -4 -4 -4 -4 -5 -5 -5 -6 -7 -7 -7 -7 -7 -8 -8 -9 -10 -11 -12 -12 -12 -13 -13 -13 -13 -13 -13 -13 -13
-3 -3 -4 -4 -5 -5 -5 -5 -5 -6 -7 -7 -7 -8 -8 -8 -9 -10 -11 -11 -12 -12 -13 -13 -13 -14 -14 -14 -14 -14 -14 -14
-4 -4 -4 -4 -5 -6 -6 -7 -7 -7 -7 -8 -8 -9 -9 -10 -11 -12 -13 -13 -13 -13 -14 -14 -14 -14 -14 -15 -15 -15 -15 -15
-4 -4 -4 -5 -6 -6 -7 -7 -7 -8 -8 -8 -10 -10 -10 -12 -12 -13 -13 -13 -14 -14 -15 -15 -15 -15 -16 -15 -15 -15 -16 -16
-4 -5 -6 -6 -7 -8 -9 -8 -8 -8 -9 -11 -12 -12 -11 -12 -13 -14 -14 -15 -15 -15 -15 -15 -16 -17 -16 -15 -16 -16 -16 -16
-6 -6 -8 -8 -9 -9 -9 -10 -11 -11 -12 -12 -13 -12 -12 -13 -15 -15 -16 -15 -15 -16 -17 -17 -17 -16 -16 -16 -16 -16 -16 -16
-6 -8 -8 -8 -9 -9 -9 -10 -10 -11 -11 -12 -12 -13 -13 -14 -15 -16 -16 -17 -17 -17 -18 -16 -16 -16 -16 -16 -16 -17 -17 -17

GFSFLT1_700_temp_018.txt.gz
Temp
6 5 5 4 5 4 4 3 4 3 3 3 2 2 2 2 1 0 0 -0 -0 -1 -1 -1 -2 -2 -2 -2 -2 -2 -1 -1
6 5 5 4 4 4 4 4 3 3 3 3 2 2 1 1 0 -1 -1 -1 -1 -1 -1 -2 -2 -2 -2 -2 -2 -2 -2 -2
6 5 5 4 4 4 3 3 3 3 2 2 2 2 1 0 0 -1 -1 -2 -1 -2 -2 -2 -2 -2 -2 -2 -3 -3 -3 -3
5 5 4 3 3 3 3 3 2 2 1 1 1 1 0 -1 -1 -2 -2 -2 -2 -2 -2 -2 -3 -3 -3 -3 -4 -4 -4 -4
2 4 3 3 3 3 2 2 2 2 1 1 0 0 -1 -1 -1 -2 -2 -2 -2 -2 -2 -3 -3 -3 -3 -4 -4 -4 -4 -4
3 3 3 3 3 2 2 2 1 1 0 0 -0 -1 -1 -1 -1 -1 -1 -1 -2 -3 -3 -3 -4 -4 -4 -4 -4 -5 -5 -5
2 2 1 2 3 2 1 1 -0 -1 -2 -1 -1 -1 -1 -1 -1 -1 -2 -3 -3 -4 -4 -4 -5 -5 -5 -5 -5 -6 -6 -6
0 -0 -0 -1 -0 1 1 0 -1 -1 -2 -2 -3 -2 -2 -2 -2 -3 -4 -4 -4 -5 -5 -6 -6 -6 -6 -6 -7 -7 -9 -10
-0 -0 -1 -1 -2 -1 -1 -1 -1 -2 -2 -2 -2 -2 -3 -3 -3 -4 -5 -5 -6 -6 -6 -7 -7 -8 -8 -8 -10 -11 -11 -11
-0 -1 -1 -2 -2 -2 -2 -2 -2 -2 -3 -3 -3 -3 -4 -4 -5 -5 -5 -6 -6 -7 -8 -8 -8 -9 -10 -11 -12 -12 -12 -12
-1 -1 -2 -2 -2 -3 -4 -4 -4 -4 -4 -5 -5 -5 -5 -5 -6 -6 -6 -7 -7 -8 -9 -10 -11 -12 -12 -12 -12 -13 -13 -13
-1 -2 -1 -1 -2 -3 -3 -4 -4 -4 -5 -5 -5 -6 -7 -7 -7 -7 -8 -8 -9 -10 -11 -12 -12 -12 -13 -13 -13 -13 -13 -14
-1 -1 -2 -3 -3 -3 -4 -5 -4 -5 -5 -6 -7 -7 -8 -8 -8 -8 -9 -9 -10 -11 -12 -13 -13 -14 -13 -13 -13 -14 -14 -14
-1 -2 -2 -2 -3 -4 -5 -5 -6 -6 -7 -7 -8 -8 -9 -8 -8 -10 -10 -11 -12 -13 -14 -14 -14 -14 -14 -14 -15 -14 -14 -15
-3 -3 -3 -3 -4 -5 -6 -6 -8 -8 -8 -8 -8 -9 -10 -9 -11 -11 -12 -13 -14 -14 -14 -14 -15 -15 -15 -16 -15 -15 -15 -16
-3 -3 -4 -4 -6 -7 -7 -8 -9 -9 -9 -9 -10 -11 -11 -11 -11 -12 -13 -14 -15 -15 -15 -15 -16 -16 -17 -17 -16 -16 -16 -16
-4 -4 -4 -5 -7 -8 -9 -9 -9 -9 -9 -10 -10 -11 -11 -11 -11 -13 -13 -15 -15 -16 -16 -17 -17 -17 -17 -16 -16 -16 -17 -16
-4 -5 -6 -8 -9 -9 -9 -9 -10 -9 -10 -10 -10 -10 -11 -12 -11 -12 -14 -15 -15 -16 -17 -17 -16 -17 -17 -16 -17 -17 -17 -17
-5 -7 -9 -9 -9 -9 -10 -10 -10 -10 -11 -11 -11 -11 -11 -12 -12 -13 -14 -15 -16 -17 -17 -16 -17 -17 -17 -17 -17 -17 -17 -18

GFSFLT1_700_temp_024.txt.gz
Temp
5 5 5 5 4 4 4 3 3 3 3 2 2 1 1 1 1 1 0 -0 -1 -1 -2 -2 -2 -2 -1 -1 -1 -1 -1 -1
6 5 5 5 4 4 3 3 3 3 2 2 1 1 1 1 0 -0 -1 -1 -2 -3 -2 -3 -3 -2 -2 -2 -2 -2 -2 -1
6 6 5 5 5 4 3 3 3 2 1 1 1 1 0 -1 -1 -1 -1 -2 -3 -4 -3 -3 -3 -3 -3 -3 -3 -3 -3 -3
6 6 6 5 4 3 3 3 2 2 2 2 1 1 -0 -1 -1 -2 -2 -3 -3 -2 -2 -3 -3 -4 -4 -4 -4 -5 -5 -4
6 5 5 5 4 3 3 3 2 2 1 1 0 -0 -1 -1 -1 -1 -2 -2 -2 -3 -3 -3 -4 -4 -5 -5 -5 -5 -5 -5
6 5 5 4 4 3 2 2 1 1 1 1 0 -0 -1 -1 -2 -2 -3 -3 -3 -4 -4 -4 -5 -5 -5 -5 -6 -6 -6 -7
4 4 4 3 3 2 2 1 1 1 0 -0 -1 -1 -2 -3 -3 -4 -4 -4 -5 -5 -5 -6 -6 -6 -6 -6 -7 -7 -7 -8
3 3 3 2 2 1 1 0 -0 -1 -2 -2 -2 -2 -3 -4 -5 -5 -6 -6 -6 -7 -6 -7 -7 -7 -7 -8 -8 -9 -10 -11
1 0 -0 -0 -0 -1 -1 -2 -2 -2 -2 -2 -2 -3 -4 -5 -5 -6 -6 -6 -7 -7 -8 -8 -9 -9 -10 -10 -10 -11 -11 -12
0 -0 -1 -1 -1 -2 -2 -2 -3 -3 -3 -3 -3 -4 -5 -5 -6 -7 -7 -8 -9 -9 -9 -10 -10 -10 -10 -11 -11 -12 -12 -13
-0 -0 -1 -1 -2 -2 -2 -2 -2 -2 -3 -3 -5 -6 -6 -7 -7 -7 -8 -9 -9 -10 -10 -11 -10 -10 -11 -12 -12 -13 -14 -14
-1 -1 -2 -2 -2 -2 -2 -2 -3 -3 -4 -5 -6 -7 -7 -7 -8 -8 -9 -10 -10 -10 -11 -12 -11 -12 -12 -12 -13 -13 -14 -15
-0 -1 -1 -1 -1 -2 -2 -3 -3 -4 -5 -6 -7 -7 -8 -9 -9 -10 -10 -10 -11 -11 -11 -12 -13 -13 -13 -13 -13 -14 -14 -15
-1 -1 -1 -2 -2 -2 -3 -3 -4 -4 -6 -7 -8 -8 -9 -10 -10 -10 -11 -11 -11 -11 -12 -13 -13 -14 -14 -14 -14 -14 -15 -16
-1 -2 -1 -2 -2 -3 -3 -4 -5 -6 -7 -8 -9 -10 -10 -10 -11 -11 -12 -12 -12 -12 -12 -13 -14 -15 -15 -14 -14 -15 -15 -16
-2 -2 -2 -2 -3 -4 -4 -5 -6 -8 -9 -10 -10 -10 -11 -11 -12 -13 -13 -13 -13 -13 -13 -14 -14 -15 -15 -14 -15 -15 -16 -16
-2 -2 -3 -3 -3 -4 -5 -7 -9 -9 -10 -10 -10 -11 -11 -12 -13 -13 -13 -13 -14 -14 -14 -14 -15 -15 -15 -15 -15 -16 -16 -16
-2 -3 -3 -3 -5 -6 -8 -9 -9 -9 -10 -10 -11 -11 -12 -13 -13 -13 -13 -14 -14 -14 -14 -15 -15 -16 -15 -15 -16 -16 -16 -17
-3 -3 -4 -5 -7 -8 -9 -10 -10 -10 -10 -11 -12 -12 -13 -13 -13 -13 -13 -14 -14 -14 -15 -16 -16 -15 -16 -16 -16 -16 -17 -17

GFSFLT1_700_temp_027.txt.gz
Temp
5 5 4 4 4 4 3 3 3 2 2 2 2 2 2 1 1 0 -1 -1 -1 -2 -2 -2 -2 -3 -2 -2 -2 -2 -2 -2
6 5 4 4 4 4 3 2 3 2 2 1 2 1 1 1 -0 -1 -2 -2 -2 -3 -3 -3 -3 -3 -3 -3 -3 -3 -3 -3
6 6 5 4 4 4 4 3 2 2 1 1 1 0 -0 -1 -2 -2 -2 -2 -3 -3 -3 -3 -3 -3 -3 -3 -4 -4 -4 -4
6 6 5 5 4 4 3 2 1 1 0 -0 -0 -1 -1 -2 -2 -3 -2 -2 -2 -2 -2 -3 -3 -4 -4 -5 -5 -5 -5 -5
5 3 4 4 3 2 2 1 1 1 0 -0 -1 -1 -1 -2 -2 -2 -1 -1 -2 -3 -3 -4 -4 -5 -5 -6 -6 -6 -6 -7
4 3 3 3 2 2 2 1 1 1 1 1 0 -0 -1 -1 -1 -2 -2 -3 -4 -4 -5 -5 -5 -6 -6 -6 -6 -7 -7 -8
3 3 3 2 2 2 2 1 1 0 -0 -0 -1 -2 -2 -2 -2 -3 -4 -4 -5 -5 -5 -6 -7 -7 -8 -8 -8 -8 -9 -9
2 2 1 2 3 2 1 -0 -1 -1 -2 -2 -2 -2 -3 -3 -4 -4 -5 -5 -6 -7 -8 -8 -8 -9 -9 -10 -10 -10 -10 -10
2 3 2 2 1 -0 -1 -1 -1 -2 -2 -2 -2 -3 -3 -3 -4 -5 -6 -7 -7 -8 -9 -10 -10 -10 -11 -12 -11 -11 -11 -12
1 1 1 0 -1 -1 -1 -1 -1 -1 -2 -2 -2 -3 -4 -5 -6 -7 -7 -8 -8 -9 -10 -10 -11 -11 -11 -12 -12 -12 -12 -12
1 0 -0 -1 -1 -2 -1 -1 -2 -2 -2 -3 -4 -5 -5 -6 -7 -8 -9 -9 -10 -11 -11 -11 -11 -11 -12 -13 -13 -13 -13 -13
0 -1 -1 -2 -2 -2 -2 -2 -2 -2 -3 -4 -5 -6 -7 -8 -9 -10 -10 -10 -11 -11 -11 -12 -11 -12 -13 -14 -14 -13 -13 -14
-0 -1 -2 -2 -2 -2 -2 -2 -3 -3 -4 -5 -6 -7 -8 -9 -10 -10 -11 -11 -11 -12 -12 -12 -13 -13 -13 -14 -14 -14 -14 -15
-0 -1 -1 -2 -2 -3 -2 -2 -3 -5 -5 -5 -6 -8 -9 -10 -11 -11 -11 -11 -12 -13 -13 -13 -14 -13 -14 -14 -15 -15 -15 -16
-1 -1 -2 -2 -3 -2 -3 -4 -4 -5 -5 -6 -8 -10 -10 -10 -10 -11 -11 -12 -13 -13 -13 -14 -14 -14 -14 -15 -15 -15 -16 -16
-2 -2 -2 -2 -2 -3 -4 -4 -5 -5 -6 -8 -10 -10 -10 -10 -11 -12 -12 -12 -13 -13 -13 -14 -14 -15 -15 -15 -15 -16 -16 -16
-2 -2 -2 -2 -3 -4 -4 -5 -6 -7 -8 -9 -9 -10 -10 -11 -12 -12 -12 -12 -13 -13 -14 -14 -15 -15 -15 -16 -16 -16 -16 -16
-2 -2 -3 -3 -4 -5 -5 -6 -7 -8 -9 -9 -10 -11 -11 -12 -12 -12 -12 -13 -13 -13 -14 -14 -15 -15 -16 -16 -16 -16 -16 -16
-2 -3 -4 -5 -5 -5 -6 -7 -8 -9 -9 -10 -10 -11 -12 -12 -12 -12 -12 -13 -14 -14 -15 -15 -15 -15 -15 -16 -16 -16 -16 -16

GFSFLT1_700_temp_030.txt.gz
Temp
5 4 4 4 4 4 3 3 1 2 1 0 1 1 1 1 0 -0 -1 -2 -2 -2 -2 -3 -2 -2 -2 -2 -2 -3 -3 -2
5 5 4 4 4 4 3 2 1 2 1 1 0 0 0 -0 -0 -1 -2 -3 -3 -2 -2 -2 -2 -2 -2 -2 -3 -3 -3 -3
6 5 5 4 4 3 1 2 2 1 1 1 1 1 0 -1 -1 -2 -2 -2 -2 -2 -2 -2 -2 -2 -2 -3 -3 -4 -4 -4
6 5 5 4 3 3 3 2 1 1 1 0 -0 -0 -1 -1 -1 -2 -2 -2 -2 -2 -1 -2 -2 -3 -4 -4 -4 -5 -5 -6
4 4 3 3 3 2 2 1 1 1 1 0 0 -0 -1 -1 -1 -1 -1 -2 -2 -2 -3 -4 -5 -5 -5 -6 -6 -6 -7 -7
3 3 3 2 2 1 1 1 1 1 0 -0 -0 -1 -2 -2 -2 -2 -3 -3 -4 -5 -5 -5 -5 -6 -6 -6 -7 -8 -9 -9
3 2 2 1 1 1 -0 0 0 0 -1 -1 -1 -2 -2 -3 -3 -3 -4 -4 -5 -5 -5 -6 -7 -7 -8 -9 -10 -10 -10 -11
2 2 2 1 1 0 0 -0 -1 -1 -1 -2 -2 -3 -3 -3 -4 -4 -5 -5 -5 -6 -7 -7 -8 -8 -9 -10 -11 -11 -11 -12
2 3 2 1 0 -0 -0 -1 -1 -2 -2 -2 -2 -3 -3 -4 -4 -5 -5 -5 -6 -6 -7 -9 -10 -11 -11 -11 -12 -12 -12 -13
3 2 2 1 1 -0 -1 -2 -2 -2 -2 -2 -3 -3 -4 -4 -4 -5 -6 -7 -7 -9 -10 -11 -11 -12 -12 -13 -12 -13 -14 -13
2 2 1 0 -0 -1 -2 -2 -3 -3 -2 -3 -3 -4 -5 -5 -6 -7 -8 -9 -10 -11 -11 -12 -13 -13 -13 -13 -13 -14 -14 -14
1 1 0 -0 -1 -1 -2 -2 -3 -3 -3 -3 -4 -5 -6 -6 -7 -9 -10 -10 -11 -11 -11 -12 -13 -13 -14 -14 -14 -14 -14 -15
0 0 -0 -1 -2 -2 -3 -3 -3 -3 -4 -5 -5 -6 -7 -8 -9 -9 -10 -10 -10 -11 -11 -12 -13 -13 -14 -14 -14 -14 -15 -15
0 -0 -1 -2 -2 -2 -3 -3 -4 -4 -5 -5 -6 -7 -8 -8 -8 -9 -9 -10 -11 -12 -12 -12 -13 -14 -14 -14 -14 -14 -15 -15
-1 -1 -1 -2 -3 -3 -4 -4 -5 -5 -6 -6 -7 -7 -7 -8 -9 -9 -10 -11 -12 -12 -12 -12 -12 -14 -14 -15 -15 -15 -15 -16
-1 -2 -2 -3 -3 -4 -4 -4 -5 -5 -6 -6 -7 -7 -8 -9 -9 -10 -11 -12 -12 -12 -12 -13 -13 -14 -14 -15 -15 -15 -16 -16
-2 -3 -3 -3 -4 -4 -4 -5 -5 -6 -6 -7 -7 -8 -9 -10 -10 -11 -12 -12 -12 -12 -13 -14 -14 -14 -14 -15 -15 -15 -16 -16
-2 -3 -3 -4 -4 -5 -5 -6 -6 -6 -7 -8 -8 -9 -10 -10 -11 -12 -12 -13 -13 -13 -14 -14 -15 -14 -14 -15 -15 -16 -16 -16
-3 -3 -3 -4 -5 -6 -6 -6 -7 -7 -8 -8 -9 -9 -10 -11 -12 -13 -13 -13 -13 -14 -14 -15 -14 -15 -15 -15 -15 -16 -16 -16

GFSFLT1_700_temp_033.txt.gz
Temp
5 4 4 4 4 4 4 3 2 2 1 1 0 1 0 0 0 -0 -0 -1 -1 -2 -2 -2 -2 -2 -2 -2 -2 -2 -2 -2
5 4 4 4 4 4 3 2 2 0 1 1 1 0 0 -0 -0 -1 -1 -1 -1 -1 -2 -2 -2 -2 -2 -2 -2 -2 -2 -2
5 5 4 4 4 3 1 1 1 1 1 0 -0 -1 -1 -1 -1 -1 -1 -1 -1 -2 -2 -2 -2 -2 -2 -2 -2 -3 -3 -4
5 4 4 4 3 3 2 2 2 1 0 -0 -1 -1 -1 -1 -1 -1 -1 -2 -2 -2 -2 -2 -3 -3 -4 -4 -4 -5 -5 -6
5 4 4 4 3 2 2 1 0 0 -0 -1 -1 -1 -1 -2 -2 -2 -2 -2 -3 -3 -3 -4 -4 -5 -5 -5 -6 -7 -7 -8
4 3 3 3 2 1 1 1 1 -0 -0 -0 -1 -1 -2 -2 -2 -2 -3 -3 -3 -4 -4 -5 -5 -6 -7 -7 -7 -8 -9 -10
3 2 2 2 2 1 1 1 0 -0 -1 -1 -1 -2 -2 -2 -2 -3 -4 -4 -5 -5 -5 -6 -7 -7 -7 -8 -9 -10 -11 -11
2 2 2 2 2 1 1 0 -0 -1 -1 -2 -2 -2 -2 -3 -3 -4 -5 -4 -5 -5 -6 -7 -8 -9 -9 -10 -10 -11 -12 -12
3 2 2 1 1 1 0 -1 -1 -2 -2 -3 -3 -3 -3 -4 -4 -4 -5 -5 -6 -7 -8 -8 -9 -10 -10 -11 -12 -12 -13 -13
2 2 2 1 1 0 -0 -1 -1 -2 -3 -3 -4 -3 -4 -4 -4 -5 -5 -6 -7 -7 -8 -9 -9 -10 -11 -12 -13 -13 -13 -14
2 2 2 1 1 -0 -1 -2 -2 -2 -3 -4 -3 -4 -4 -5 -5 -5 -6 -7 -8 -8 -9 -10 -10 -11 -12 -13 -13 -13 -14 -14
2 2 1 1 -0 -1 -2 -2 -2 -3 -3 -4 -4 -4 -5 -5 -6 -7 -8 -8 -8 -9 -10 -10 -11 -12 -12 -13 -14 -13 -14 -14
2 1 1 -0 -1 -2 -2 -2 -3 -4 -4 -4 -5 -5 -5 -6 -7 -7 -8 -8 -9 -10 -10 -11 -12 -12 -12 -13 -13 -13 -14 -15
1 1 -0 -1 -2 -2 -2 -3 -4 -5 -5 -5 -5 -6 -7 -7 -7 -8 -8 -9 -10 -10 -11 -12 -12 -12 -12 -13 -14 -14 -15 -15
0 -0 -1 -2 -2 -3 -3 -3 -5 -5 -5 -6 -6 -7 -7 -7 -8 -8 -9 -10 -10 -11 -12 -12 -13 -13 -14 -14 -14 -14 -15 -15
-0 -1 -2 -2 -3 -3 -4 -4 -5 -6 -6 -6 -7 -7 -7 -8 -8 -9 -10 -11 -11 -12 -12 -13 -13 -14 -14 -14 -15 -15 -15 -15
-1 -2 -3 -3 -3 -3 -4 -5 -6 -6 -6 -7 -7 -7 -8 -9 -9 -10 -11 -11 -12 -13 -13 -13 -14 -15 -15 -15 -15 -15 -15 -15
-2 -2 -3 -3 -4 -5 -5 -6 -6 -6 -7 -7 -7 -8 -9 -9 -10 -10 -11 -12 -13 -13 -13 -14 -14 -15 -15 -15 -15 -15 -15 -16
-2 -3 -3 -3 -4 -5 -6 -6 -6 -7 -7 -8 -8 -8 -9 -10 -11 -11 -12 -12 -13 -13 -14 -14 -15 -15 -15 -15 -15 -15 -16 -16

GFSFLT1_700_temp_036.txt.gz
Temp
5 5 4 4 4 3 3 3 2 2 2 0 0 -0 1 0 0 0 -0 -0 -0 -1 -1 -2 -2 -2 -2 -2 -2 -2 -2 -1
5 4 4 4 4 3 3 2 2 1 0 1 0 0 1 1 0 -0 -1 -1 -1 -2 -2 -2 -2 -2 -2 -2 -2 -2 -2 -2
5 5 4 4 4 3 3 3 3 2 1 1 1 0 -0 -1 -1 -1 -1 -1 -1 -2 -2 -2 -3 -3 -3 -3 -3 -3 -4 -4
5 5 4 4 4 3 3 2 2 1 1 0 -0 -1 -1 -1 -2 -2 -2 -2 -2 -2 -3 -3 -3 -3 -4 -4 -4 -5 -5 -6
5 5 4 4 3 3 2 1 1 1 0 -1 -1 -2 -2 -2 -2 -2 -2 -2 -3 -3 -3 -4 -4 -5 -5 -5 -6 -6 -6 -7
5 4 3 4 3 2 1 2 1 1 0 -1 -1 -2 -2 -2 -2 -2 -3 -3 -4 -4 -4 -5 -5 -5 -6 -6 -7 -8 -8 -9
4 4 3 3 2 2 2 1 1 0 -0 -1 -1 -2 -2 -2 -3 -3 -3 -4 -4 -5 -4 -5 -5 -6 -7 -8 -9 -10 -11 -12
4 3 3 2 2 2 1 1 0 -1 -1 -1 -1 -2 -2 -3 -3 -3 -4 -4 -5 -5 -6 -6 -7 -8 -9 -10 -11 -12 -12 -12
3 3 2 2 2 1 1 0 -0 -1 -1 -2 -2 -2 -3 -3 -3 -4 -4 -5 -5 -6 -6 -7 -8 -9 -9 -9 -11 -12 -12 -12
3 2 2 2 1 1 0 -0 -1 -1 -2 -2 -2 -3 -3 -4 -4 -5 -5 -5 -6 -7 -7 -8 -8 -9 -9 -10 -12 -12 -13 -13
2 2 2 2 1 1 -0 -1 -1 -1 -2 -2 -3 -3 -4 -5 -5 -5 -5 -6 -7 -7 -8 -8 -8 -9 -10 -11 -12 -13 -13 -13
2 2 2 1 1 0 -1 -1 -2 -2 -2 -3 -3 -4 -5 -5 -5 -6 -6 -7 -7 -8 -8 -9 -9 -10 -11 -12 -12 -13 -13 -13
2 2 2 1 1 -0 -1 -1 -2 -2 -3 -3 -4 -5 -5 -6 -6 -7 -7 -7 -8 -8 -9 -10 -10 -11 -12 -12 -12 -13 -13 -14
2 2 1 1 0 -1 -1 -2 -2 -2 -3 -5 -5 -6 -6 -6 -7 -7 -7 -8 -9 -9 -10 -11 -11 -12 -12 -13 -13 -14 -14 -14
2 1 1 0 -0 -1 -1 -2 -3 -4 -4 -5 -6 -6 -6 -6 -7 -7 -8 -9 -10 -10 -11 -11 -12 -12 -13 -14 -14 -15 -15 -15
1 1 1 -0 -1 -1 -2 -3 -4 -4 -5 -6 -6 -6 -6 -7 -7 -8 -9 -10 -10 -11 -11 -12 -13 -13 -13 -14 -15 -15 -15 -15
1 0 -0 -1 -2 -2 -3 -3 -4 -5 -6 -6 -6 -6 -7 -7 -8 -9 -10 -10 -11 -11 -12 -13 -13 -13 -14 -15 -15 -15 -15 -15
1 -0 -1 -2 -2 -3 -3 -4 -5 -6 -7 -6 -6 -7 -8 -8 -9 -10 -10 -11 -11 -12 -13 -13 -14 -14 -14 -15 -15 -15 -15 -15
0 -1 -2 -3 -3 -3 -4 -5 -6 -7 -7 -7 -7 -8 -8 -9 -10 -10 -11 -11 -12 -12 -13 -14 -14 -14 -15 -15 -15 -15 -15 -16

GFSFLT1_700_temp_042.txt.gz
Temp
4 3 3 3 6 5 4 4 4 3 3 2 2 2 2 2 1 1 0 0 1 0 1 0 -0 -0 -0 -1 -1 -1 -1 -1
4 5 4 3 5 5 4 4 4 3 3 2 2 2 2 1 1 1 0 0 0 -0 -0 -1 -0 -1 -1 -1 -1 -2 -2 -2
5 6 5 3 5 5 4 4 3 3 3 3 2 1 1 1 1 0 0 -0 -1 -1 -1 -1 -1 -2 -2 -3 -3 -3 -3 -3
5 5 5 4 5 4 4 4 3 3 3 2 2 1 0 0 -0 -1 -1 -1 -1 -1 -1 -1 -2 -3 -3 -3 -3 -4 -3 -4
5 5 5 5 4 4 4 4 3 3 2 2 1 0 -0 -0 -1 -2 -2 -2 -2 -2 -2 -3 -3 -3 -4 -4 -4 -5 -5 -5
4 4 4 5 4 4 4 4 3 3 2 1 0 -0 -2 -2 -2 -3 -2 -3 -2 -3 -3 -3 -4 -4 -4 -5 -5 -5 -6 -7
4 3 3 3 5 4 3 3 1 2 1 1 0 -0 -0 -1 -2 -2 -2 -3 -4 -5 -4 -5 -5 -5 -5 -6 -6 -6 -7 -8
3 3 3 4 4 3 3 2 2 2 1 1 0 0 -0 -1 -2 -2 -2 -3 -4 -4 -4 -5 -5 -5 -6 -6 -7 -7 -8 -9
3 3 2 3 3 3 2 2 2 2 1 1 1 0 -1 -2 -2 -2 -2 -3 -4 -4 -5 -5 -5 -6 -6 -7 -7 -8 -9 -9
2 2 2 3 3 3 2 2 2 2 1 1 0 -1 -1 -2 -2 -2 -4 -4 -4 -5 -5 -5 -6 -7 -7 -7 -8 -9 -10 -11
2 2 3 3 3 3 2 2 1 1 1 1 -0 -1 -2 -2 -2 -3 -3 -4 -5 -5 -5 -6 -6 -7 -7 -8 -9 -10 -10 -11
3 2 2 2 2 2 2 2 1 1 1 -0 -1 -1 -1 -2 -2 -4 -5 -5 -5 -5 -6 -6 -7 -7 -8 -9 -9 -10 -11 -12
2 2 1 1 1 1 2 2 1 1 0 -0 -1 -1 -2 -2 -3 -5 -5 -6 -6 -6 -6 -7 -7 -8 -9 -10 -10 -11 -11 -12
2 2 1 0 1 1 1 1 1 1 0 -2 -2 -2 -2 -2 -5 -6 -6 -6 -6 -7 -7 -8 -8 -9 -10 -10 -11 -12 -13 -13
3 2 1 0 0 1 -0 1 1 1 -1 -2 -2 -2 -3 -3 -6 -7 -7 -7 -7 -7 -8 -9 -9 -10 -11 -12 -13 -13 -14 -14
3 3 1 1 0 -0 -0 0 1 -1 -2 -2 -2 -3 -3 -6 -7 -7 -8 -9 -8 -8 -9 -9 -10 -11 -12 -12 -13 -14 -14 -15
3 2 1 0 -0 -1 -0 -0 -1 -2 -3 -3 -3 -3 -5 -7 -8 -9 -9 -9 -8 -9 -10 -10 -11 -12 -12 -13 -13 -14 -15 -15
2 1 1 -0 -1 -1 -1 -2 -1 -3 -3 -3 -3 -4 -6 -10 -9 -9 -10 -9 -9 -9 -10 -11 -11 -12 -13 -13 -14 -15 -15 -15
1 0 0 -0 -2 -2 -2 -3 -3 -3 -3 -4 -4 -6 -9 -9 -10 -12 -10 -9 -9 -10 -11 -11 -12 -13 -13 -13 -14 -15 -15 -15

GFSFLT1_700_temp_045.txt.gz
Temp
5 5 6 6 6 5 4 3 4 3 3 3 2 2 2 2 2 2 1 1 0 0 1 0 0 0 0 0 0 0 -0 -0
6 5 6 6 6 5 5 4 4 3 3 3 3 3 2 2 2 2 1 1 1 1 0 0 0 0 0 0 -0 -1 -1 -1
6 5 6 6 6 5 4 4 3 3 3 3 3 2 2 1 1 1 1 0 0 -0 -1 -0 -0 -1 -1 -1 -2 -2 -3 -3
6 5 5 5 5 5 4 4 3 3 4 3 3 2 2 1 0 -0 -0 -0 -1 -1 -1 -1 -1 -1 -2 -3 -3 -3 -3 -3
6 6 5 5 5 5 4 4 3 3 3 3 3 2 1 1 0 0 -0 -0 -1 -2 -2 -2 -2 -3 -3 -3 -3 -3 -4 -4
6 5 5 4 4 5 4 4 3 3 3 3 2 1 1 1 1 0 -1 -2 -2 -2 -2 -2 -2 -3 -3 -4 -4 -4 -5 -5
6 5 5 5 4 4 4 4 3 3 3 2 2 2 1 1 -0 -1 -2 -2 -3 -3 -2 -3 -4 -5 -5 -5 -5 -6 -6 -6
5 5 5 3 3 4 4 3 3 3 2 2 1 1 1 0 -1 -2 -2 -2 -3 -3 -4 -5 -5 -5 -5 -5 -5 -6 -7 -7
5 5 5 4 3 3 3 3 3 2 2 1 1 1 0 -1 -1 -2 -2 -2 -3 -3 -5 -6 -5 -6 -6 -6 -6 -7 -8 -8
5 5 4 4 4 4 3 2 1 2 1 1 1 1 -0 -1 -1 -2 -2 -2 -2 -3 -5 -6 -6 -6 -6 -6 -7 -8 -8 -9
4 4 5 4 4 3 2 2 1 1 1 1 1 0 -0 -1 -2 -2 -3 -3 -2 -4 -7 -6 -6 -6 -7 -7 -7 -8 -9 -10
5 5 4 4 3 2 2 1 1 1 1 1 1 -0 -1 -2 -2 -2 -3 -3 -5 -7 -6 -7 -7 -7 -8 -8 -8 -9 -10 -11
4 4 3 3 3 2 2 2 1 -0 -1 -1 -0 -1 -2 -2 -2 -2 -3 -4 -7 -7 -7 -8 -7 -7 -8 -8 -9 -10 -10 -11
4 3 2 2 2 2 -0 -0 -0 -0 -1 -1 -1 -2 -2 -2 -3 -3 -3 -5 -8 -8 -9 -9 -8 -8 -9 -9 -9 -10 -12 -12
4 3 3 3 2 0 -0 -1 -0 -0 -1 -1 -2 -2 -2 -3 -3 -4 -6 -8 -9 -9 -9 -9 -9 -8 -9 -10 -11 -12 -12 -13
4 4 3 2 2 1 0 -0 -1 -1 -2 -2 -2 -3 -3 -4 -4 -7 -8 -10 -10 -11 -11 -11 -10 -9 -10 -12 -12 -13 -13 -14
4 3 3 2 2 1 1 -1 -1 -1 -2 -2 -3 -4 -4 -4 -7 -8 -12 -11 -11 -12 -12 -11 -11 -11 -12 -12 -13 -13 -14 -14
3 3 2 2 2 1 -1 -2 -2 -2 -3 -3 -4 -4 -4 -6 -7 -10 -11 -11 -12 -12 -12 -11 -11 -12 -12 -13 -13 -13 -14 -14
3 2 1 1 0 -0 -2 -2 -3 -3 -3 -4 -4 -4 -5 -7 -8 -11 -11 -11 -13 -13 -11 -11 -11 -12 -12 -13 -13 -14 -14 -15